Location: Ohmer (historical)
(38.0096°N, 122.0227°W)
Time: 06:12:55
(UTC+00:00)

Cosmos 2221 Rocket - Pass Details

Date: 14 February 2026
Orbit: 616 x 641 km, 82.5° (Epoch: 9 March)

Event Time Altitude Azimuth Distance (km) Brightness Sun altitude
Rises 14:06:35 0° 341° (NNW) 2,953 6.8 -10.9°
Reaches altitude 10° 14:09:01 10° 332° (NNW) 2,038 5.9 -10.5°
Maximum altitude 14:13:00 31° 270° (W) 1,113 4.3 -9.7°
Drops below altitude 10° 14:16:57 10° 208° (SSW) 2,016 6.0 -8.9°
Sets 14:19:22 0° 198° (SSW) 2,916 6.9 -8.5°
